Regional Weather Roundup
Issued by NWS Spokane, WA

Current Version | Previous Version | Text Only | Print | Product List | Glossary On
Versions: 1 2 3 4 5 6 7 8 9 10 11 12 13 14 15 16 17 18 19 20 21 22 23 24 25 26 27 28 29 30 31 32 33 34 35 36 37 38 39 40 41 42 43 44 45 46 47 48 49 50
000
NZUS01 KOTX 270405
RWROTX

Eastern Washington/Northern Idaho Roundup
National Weather Service, Spokane WA
900 PM PDT MON JUN 26 2017

Note: "fair" indicated few or no clouds below 12,000 feet with no
significant weather and/or obstructions to visibility.

...Northeast Washington and Northern Idaho Panhandle...

CITY           SKY/WX    TMP DP  RH WIND       PRES   REMARKS
Spokane Intl   CLOUDY    69  60  73 SW21G30   29.81S
Spokane Downto CLOUDY    70  61  73 S9        29.81S
Coeur d Alene  LGT RAIN  68  60  75 N6        29.86R
Deer Park      CLOUDY    64  57  78 SE8       29.82R
Sandpoint      HVY RAIN  63  59  88 SW14      29.80R
Bonners Ferry  MOCLDY    70  57  64 N17G24    29.75R

...Southeast Washington and southern Idaho Panhandle...

CITY           SKY/WX    TMP DP  RH WIND       PRES   REMARKS
Walla Walla    CLOUDY    70  59  68 E16       29.78F
Pullman/Moscow CLOUDY    67  54  63 SW18G30   29.91R
Lewiston       CLOUDY    78  52  40 W5        29.82R
Lowell           N/A     70  60  70 CALM      29.78F
Grangeville    FAIR      68  52  56 SW12      29.92R

...Columbia Basin...

CITY           SKY/WX    TMP DP  RH WIND       PRES   REMARKS
Ephrata        CLOUDY    83  46  27 S13       29.71R
Moses Lake     CLOUDY    78  54  43 S17G23    29.73R
Pasco          CLOUDY    75  61  61 SE13      29.75F
Richland       CLOUDY    77  60  55 S6        29.74F
Hermiston      CLOUDY    72  60  66 S7        29.77S
Pendleton      CLOUDY    67  57  70 NE20      29.78F

...East Slopes Cascades...

CITY           SKY/WX    TMP DP  RH WIND       PRES   REMARKS
The Dalles     MOCLDY    76  53  44 W21G29    29.82S
Yakima         CLOUDY    84  50  30 N10       29.76S
Ellensburg     CLOUDY    73  46  38 NW26G38   29.81F
Wenatchee      CLOUDY    82  43  25 NW22G28   29.73R
Omak           CLOUDY    82  37  20 NW16      29.68R
Sunnyside      CLOUDY    74  56  52 NE5       29.74S

...Southern British Columbia...

CITY           SKY/WX    TMP DP  RH WIND       PRES   REMARKS

...Western Montana...

CITY           SKY/WX    TMP DP  RH WIND       PRES   REMARKS
Kalispell      CLOUDY    70  58  65 CALM      29.73F
Missoula       MOCLDY    77  42  28 W8        29.81R

...Neighboring Cities...

CITY           SKY/WX    TMP DP  RH WIND       PRES   REMARKS
Seattle        PTCLDY    63  53  70 SW9       29.98R
Portland       PTCLDY    67  52  58 NW10      29.98R
Boise          PTCLDY    77  53  43 SE8       29.80F
Great Falls    CLOUDY    72  46  39 N9        29.77R



USA.gov is the U.S. government's official web portal to all federal, state and local government web resources and services.